Weather Roundup
Issued by NWS Springfield, MO

Home | Current Version | Previous Version | Text Only | Print | Product List | Glossary On
Versions: 1 2 3 4 5 6 7 8 9 10 11 12 13 14 15 16 17 18 19 20 21 22 23 24 25 26 27 28 29 30 31 32 33 34 35 36 37 38 39 40 41 42 43 44 45 46 47 48 49 50
000
NZUS99 KSGF 261907
HRRSGF

HOURLY WEATHER
NATIONAL WEATHER SERVICE SPRINGFIELD MO
100 PM CST FRI DEC 26 2014

......SGF CWA......

CITY           SKY/WX    TMP DP  RH WIND       PRES   REMARKS
SPRINGFIELD    CLOUDY    55  43  63 S16       29.97F
JOPLIN         CLOUDY    59  47  64 S20G31    29.93F
WEST PLAINS    CLOUDY    52  43  71 S12G22    30.07F
ROLLA          FAIR      56  43  61 S17G24    29.99F
OSAGE BEACH    CLOUDY    61  43  51 S13       29.97F
BRANSON        PTSUNNY   55  45  67 MISG      30.02F

......SURROUNDING SGF CWA......

CITY           SKY/WX    TMP DP  RH WIND       PRES   REMARKS
CHANUTE        CLOUDY    54  45  71 SW12      29.90F
PARSONS        CLOUDY    57  47  69 S10       29.91F
COFFEYVILLE    PTSUNNY   60  47  61 S18G28    29.89F
EMPORIA        CLOUDY    42  33  70 NW7       29.91F
GROVE OK       CLOUDY    59  46  63 S13G20    29.95F
ROGERS AR      CLOUDY    55  47  74 S12G23    29.98F
SILOAM SPRINGS CLOUDY    54  45  71 S15       29.98F
HARRISON AR    CLOUDY    51  46  83 S17       30.02F
NEAR YELLVILLE CLOUDY    52  41  66 S7        30.06F

......KANSAS AND MISSOURI......

CITY           SKY/WX    TMP DP  RH WIND       PRES   REMARKS
KANSAS CTY INT CLOUDY    45  36  70 NW8       29.90F
DOWNTOWN KC    CLOUDY    54  42  64 SW9       29.90F
COLUMBIA       FAIR      59  44  57 SW18      29.96F
SEDALIA        FAIR      59  44  57 SW13      29.94F
ST JOSEPH      PTSUNNY   37  33  85 N7        29.94F WCI  32
ST LOUIS       NOT AVBL
SPIRIT OF STL  FAIR      58  42  55 SW14G20   30.02F
KIRKSVILLE     FAIR      53  42  66 SW12G20   29.93F
WICHITA        CLOUDY    40  32  73 N10       29.92F WCI  33
TOPEKA         CLOUDY    41  34  76 N5        29.94F HAZE
OLATHE         CLOUDY    54  43  66 SW9       29.89F

......TENNESSEE......

CITY           SKY/WX    TMP DP  RH WIND       PRES   REMARKS
MEMPHIS        CLOUDY    54  37  52 S10       30.18F
NASHVILLE      PTSUNNY   53  37  54 S10       30.24F

......ARKANSAS.......

CITY           SKY/WX    TMP DP  RH WIND       PRES   REMARKS
FAYETTEVILLE   CLOUDY    52  47  83 S16G25    29.98F
FT SMITH       CLOUDY    54  47  77 SE9       30.00F
LITTLE ROCK    CLOUDY    54  40  59 SE7       30.12F

......OKLAHOMA.......

CITY           SKY/WX    TMP DP  RH WIND       PRES   REMARKS
TULSA          CLOUDY    60  49  66 S20       29.89F
PONCA CITY     CLOUDY    49  38  65 NW7       29.89F
MCALESTER      CLOUDY    55  50  83 S9G17     29.94F
OKLAHOMA CITY  PTSUNNY   60  45  57 S17G25    29.86F

......IOWA............

CITY           SKY/WX    TMP DP  RH WIND       PRES   REMARKS
DES MOINES     CLOUDY    34  31  88 N7        29.95F FOG     WCI  28
QUAD CITIES    FAIR      50  37  61 SW10      29.95F

......ILLINOIS........

CITY           SKY/WX    TMP DP  RH WIND       PRES   REMARKS
QUINCY         FAIR      53  41  63 SW15G22   29.97F
CHICAGO        PTSUNNY   48  37  65 SW14      29.98F




USA.gov is the U.S. government's official web portal to all federal, state and local government web resources and services.